TimeEST,TemperatureF,Dew PointF,Humidity,Sea Level PressureIn,VisibilityMPH,Wind Direction,Wind SpeedMPH,Gust SpeedMPH,PrecipitationIn,Events,Conditions,WindDirDegrees,DateUTC
12:53 AM,34.0,19.0,54,30.01,10.0,NNW,5.8,-,N/A,,Clear,340,2013-03-04 05:53:00
1:53 AM,30.9,19.0,61,30.03,10.0,Calm,Calm,-,N/A,,Clear,0,2013-03-04 06:53:00
2:53 AM,28.9,19.0,67,30.04,10.0,NW,3.5,-,N/A,,Clear,320,2013-03-04 07:53:00
3:53 AM,27.0,19.0,72,30.06,10.0,NW,3.5,-,N/A,,Clear,310,2013-03-04 08:53:00
4:53 AM,28.9,18.0,64,30.08,10.0,NW,4.6,-,N/A,,Clear,310,2013-03-04 09:53:00
5:53 AM,28.0,18.0,66,30.11,10.0,WNW,5.8,-,N/A,,Clear,290,2013-03-04 10:53:00
6:53 AM,26.1,18.0,71,30.13,10.0,West,5.8,-,N/A,,Clear,270,2013-03-04 11:53:00
7:53 AM,33.1,19.9,59,30.14,10.0,WNW,9.2,-,N/A,,Clear,300,2013-03-04 12:53:00
8:53 AM,37.9,19.0,47,30.16,10.0,Variable,6.9,-,N/A,,Clear,0,2013-03-04 13:53:00
9:53 AM,41.0,16.0,36,30.16,10.0,WNW,8.1,17.3,N/A,,Clear,290,2013-03-04 14:53:00
10:53 AM,43.0,16.0,34,30.15,10.0,WNW,10.4,16.1,N/A,,Clear,300,2013-03-04 15:53:00
11:53 AM,46.9,14.0,27,30.14,10.0,West,12.7,20.7,N/A,,Clear,270,2013-03-04 16:53:00
12:53 PM,50.0,14.0,24,30.11,10.0,West,12.7,19.6,N/A,,Clear,260,2013-03-04 17:53:00
1:53 PM,51.1,12.9,22,30.08,10.0,WNW,9.2,19.6,N/A,,Clear,300,2013-03-04 18:53:00
2:53 PM,53.1,12.0,20,30.06,10.0,WNW,11.5,16.1,N/A,,Clear,290,2013-03-04 19:53:00
3:53 PM,55.0,12.0,18,30.06,10.0,Variable,6.9,-,N/A,,Clear,0,2013-03-04 20:53:00
4:53 PM,55.0,12.0,18,30.06,10.0,NNW,6.9,-,N/A,,Clear,330,2013-03-04 21:53:00
5:53 PM,53.1,14.0,21,30.07,10.0,West,5.8,-,N/A,,Clear,270,2013-03-04 22:53:00
6:53 PM,45.0,19.0,36,30.09,10.0,WSW,3.5,-,N/A,,Clear,250,2013-03-04 23:53:00
7:53 PM,43.0,19.9,40,30.10,10.0,Calm,Calm,-,N/A,,Clear,0,2013-03-05 00:53:00
8:53 PM,37.9,25.0,60,30.11,10.0,Calm,Calm,-,N/A,,Clear,0,2013-03-05 01:53:00
9:53 PM,37.9,25.0,60,30.11,10.0,Calm,Calm,-,N/A,,Clear,0,2013-03-05 02:53:00
10:53 PM,37.0,26.1,65,30.10,10.0,Calm,Calm,-,N/A,,Clear,0,2013-03-05 03:53:00
11:53 PM,37.9,27.0,65,30.10,10.0,Calm,Calm,-,N/A,,Clear,0,2013-03-05 04:53:00